Main page
METAR-TAF:

METAR-TAF

Airports :

Ventspils International Airport

Ventspils, Latvia

latitude: 57-21-28N, longitude: 021-32-39E, elevation: 6 m

Current weather observation

The report was made 42 minutes ago, at 09:50 UTC
Wind 4 kt from the South/Southeast
Temperature -2°C
Humidity 100%
Pressure 1013 hPa
Visibility: 5000 m
Overcast at a height of 400 ft
light snow

METAR: EVVA 060950Z AUTO 16004KT 5000 -SN OVC004 M02/M02 Q1013

Time: 12:32 (10:32 UTC)


TAF: missing

Weather observations and forecasts of more than 4000 airports (METAR and TAF reports).

The available stations are represented by yellow and red dots on the map.

Hover mouse over dot to see the name of the station.

Then click to see weather observations and forecasts.

To change the map : click on the green buttons with a black cross to zoom in, on the green button with a dash to zoom out, or on the green arrows for adjacent maps.


METAR-TAF: